NOAA 17 DEB

基本信息
目录编号:
48707
目录名称:
NOAA 17 DEB
国际标识:
2002-032AQ
轨道中心:
EARTH
物体状态:
在轨
发射日期:
2002-06-24 UTC
轨道信息
数据来源: 国际轨道数据
星历时间: 2026-07-14T11:01:43+0800
半长轴: 7004.366km
偏心率: 0.0034657
轨道倾角: 98.766°
近地点辐角: 206.780°
升交点赤经: 266.906°
平近点角: 153.162°
近地点: 601.953km
远地点: 650.505km
周期: 97.233分钟
每日圈数: 14.809811
详细信息
发射场:
AFWTR
轨道高度:
LEO
数据来源:
AOE Integration Group
参考系:
TEME
时间系统:
UTC
历元类型:
SGP4
2D轨道图
3D轨道图
轨道高度分析图
轨道倾角分析图
轨道综合分析图
查看轨道综合分析图